DB0TGO-13 Weather Reports


time (UTC)temp
C
wind
direction
speed
KPH
gust
KPH
rain 1hr
cm
rain 24hr
cm
rain mn
cm
humidity
%
barometer
mb
20260503180002 26 230 8.0 0.0 0.00 0.00 0.00 26 1004.1
20260503174502 26 230 8.0 0.0 0.00 0.00 0.00 24 1004.2
20260503173002 26 230 9.7 0.0 0.00 0.00 0.00 24 1004.2
20260503171502 27 220 11.3 0.0 0.00 0.00 0.00 24 1004.3
20260503081502 20 180 6.4 0.0 0.00 0.00 0.00 43 1008.0
20260503071502 16 200 6.4 0.0 0.00 0.00 0.00 46 1008.0
20260503054502 12 230 1.6 0.0 0.00 0.00 0.00 56 1007.9
20260503053002 12 170 4.8 0.0 0.00 0.00 0.00 56 1007.9
20260503051502 11 170 3.2 0.0 0.00 0.00 0.00 61 1008.0
20260503050003 11 170 3.2 0.0 0.00 0.00 0.00 61 1008.0
20260503044503 10 170 3.2 0.0 0.00 0.00 0.00 63 1008.1
20260503043002 10 170 3.2 0.0 0.00 0.00 0.00 63 1008.1
20260503041502 11 170 3.2 0.0 0.00 0.00 0.00 61 1008.1
20260503040002 11 170 3.2 0.0 0.00 0.00 0.00 61 1008.1
20260503034502 11 140 1.6 0.0 0.00 0.00 0.00 61 1008.2
20260503033002 11 140 1.6 0.0 0.00 0.00 0.00 61 1008.2
20260503031502 11 140 1.6 0.0 0.00 0.00 0.00 60 1008.3
20260503030003 11 160 1.6 0.0 0.00 0.00 0.00 60 1008.3
20260502204502 19 170 3.2 0.0 0.00 0.00 0.00 40 1010.6
20260502203002 19 190 3.2 0.0 0.00 0.00 0.00 40 1010.6
20260502201502 20 190 3.2 0.0 0.00 0.00 0.00 37 1010.7
20260502200002 20 200 3.2 0.0 0.00 0.00 0.00 37 1010.7
20260502194502 21 200 3.2 0.0 0.00 0.00 0.00 33 1010.7
20260502193002 21 200 3.2 0.0 0.00 0.00 0.00 33 1010.7
20260502191503 22 200 4.8 0.0 0.00 0.00 0.00 30 1010.6
20260502190002 22 200 4.8 0.0 0.00 0.00 0.00 30 1010.6
20260502184502 23 200 4.8 0.0 0.00 0.00 0.00 28 1010.6
20260502183002 23 190 8.0 0.0 0.00 0.00 0.00 28 1010.6
20260502181502 25 190 8.0 0.0 0.00 0.00 0.00 26 1010.7